This is the latest recevied weather packets stored in our database for station/object K3FEF-13. If no packets are shown the sender has not sent any weather packets the latest 10 day(s).
| Time | Temp. | Humidity | Pressure | Rain* | Wind** | Luminosity | Snow |
|---|---|---|---|---|---|---|---|
| 1777172117 | 2.78° C | 95% | 1019.4 hPa | 1.02 mm | - | - | - |
| 1777170917 | 3.33° C | 95% | 1019.5 hPa | 0.25 mm | - | - | - |
| 1777168517 | 3.33° C | 95% | 1019.4 hPa | 0.25 mm | - | - | - |
| 1777165517 | 3.33° C | 95% | 1019.2 hPa | 1.27 mm | - | - | - |
| 1777164337 | 3.33° C | 95% | 1018.9 hPa | 1.52 mm | - | - | - |
| 1777160737 | 3.33° C | 95% | 1018.1 hPa | 3.56 mm | - | - | - |
| 1777157717 | 3.33° C | 95% | 1017.4 hPa | 5.08 mm | - | - | - |
| 1777148116 | 3.33° C | 94% | 1016.3 hPa | 3.05 mm | - | - | - |
| 1777147516 | 3.33° C | 94% | 1016.5 hPa | 3.05 mm | - | - | - |
| 1777145116 | 3.33° C | 94% | 1016.7 hPa | 2.79 mm | - | - | - |
| 1777143357 | 3.33° C | 94% | 1016.9 hPa | 2.54 mm | - | - | - |
| 1777134916 | 3.89° C | 91% | 1017.1 hPa | 2.03 mm | - | - | - |
| 1777134316 | 4.44° C | 92% | 1017.7 hPa | 1.52 mm | - | - | - |
| 1777132516 | 4.44° C | 92% | 1017.5 hPa | 1.02 mm | - | - | - |
| 1777130756 | 4.44° C | 91% | 1018.1 hPa | 1.02 mm | - | - | - |
| 1777129515 | 4.44° C | 92% | 1017.9 hPa | 1.78 mm | - | - | - |
| 1777127717 | 5° C | 92% | 1017.7 hPa | 3.3 mm | - | - | - |
| 1777121137 | 6.11° C | 87% | 1017.1 hPa | 0 mm | - | - | - |
| 1777120537 | 6.11° C | 86% | 1017.1 hPa | 0 mm | - | - | - |
| 1777119917 | 6.67° C | 84% | 1017.2 hPa | 0 mm | - | - | - |
| 1777116317 | 6.67° C | 83% | 1017.2 hPa | 0 mm | - | - | - |
| 1777114517 | 6.67° C | 83% | 1016.6 hPa | 0 mm | - | - | - |
| 1777113917 | 6.67° C | 83% | 1016.6 hPa | 0 mm | - | - | - |
| 1777111517 | 6.67° C | 80% | 1016.3 hPa | 0 mm | - | - | - |
| 1777105517 | 7.78° C | 67% | 1016.2 hPa | 0 mm | - | - | - |
* Rain latest hour (hover to see other rain measurements)
** Current wind speed in m/s (hover to see current wind gust speed)